TimeEST,TemperatureF,Dew PointF,Humidity,Sea Level PressureIn,VisibilityMPH,Wind Direction,Wind SpeedMPH,Gust SpeedMPH,PrecipitationIn,Events,Conditions,WindDirDegrees,DateUTC
12:21 AM,57.2,55.4,94,29.55,7.0,SW,8.1,-,N/A,,Overcast,230,2012-12-11 05:21:00
12:53 AM,57.0,55.0,93,29.56,7.0,WSW,6.9,-,0.00,,Overcast,250,2012-12-11 05:53:00
1:32 AM,55.4,55.4,100,29.56,5.0,SW,4.6,-,N/A,,Overcast,220,2012-12-11 06:32:00
1:53 AM,55.9,54.0,93,29.58,6.0,SW,5.8,-,N/A,,Overcast,230,2012-12-11 06:53:00
2:43 AM,55.4,53.6,94,29.60,6.0,SW,5.8,-,N/A,,Mostly Cloudy,230,2012-12-11 07:43:00
2:53 AM,55.9,54.0,93,29.60,6.0,SW,5.8,-,N/A,,Mostly Cloudy,230,2012-12-11 07:53:00
3:05 AM,55.4,53.6,94,29.61,6.0,WSW,6.9,-,N/A,,Overcast,250,2012-12-11 08:05:00
3:18 AM,55.4,53.6,94,29.63,8.0,West,6.9,-,N/A,,Overcast,280,2012-12-11 08:18:00
3:51 AM,55.4,50.0,82,29.63,10.0,WNW,4.6,-,N/A,,Overcast,300,2012-12-11 08:51:00
3:53 AM,55.0,50.0,83,29.63,10.0,NW,5.8,-,N/A,,Overcast,310,2012-12-11 08:53:00
4:53 AM,52.0,43.0,71,29.65,10.0,North,4.6,-,N/A,,Overcast,350,2012-12-11 09:53:00
5:13 AM,51.8,42.8,71,29.68,10.0,North,3.5,-,N/A,,Overcast,350,2012-12-11 10:13:00
5:53 AM,50.0,44.1,80,29.68,10.0,NNW,3.5,-,N/A,,Overcast,340,2012-12-11 10:53:00
6:06 AM,50.0,42.8,76,29.69,10.0,Variable,3.5,-,N/A,,Overcast,0,2012-12-11 11:06:00
6:53 AM,48.9,42.1,77,29.70,10.0,NW,3.5,-,N/A,,Overcast,320,2012-12-11 11:53:00
7:53 AM,48.9,41.0,74,29.73,10.0,Calm,Calm,-,0.00,,Overcast,0,2012-12-11 12:53:00
8:53 AM,46.0,42.1,86,29.83,3.0,WNW,6.9,-,0.03,Rain,Light Rain,290,2012-12-11 13:53:00
9:02 AM,46.4,42.8,87,29.83,6.0,WNW,8.1,-,0.01,Rain,Light Rain,290,2012-12-11 14:02:00
9:53 AM,46.9,44.1,90,29.82,10.0,Variable,6.9,-,0.01,,Mostly Cloudy,0,2012-12-11 14:53:00
10:01 AM,46.4,42.8,87,29.82,10.0,WNW,5.8,-,N/A,,Overcast,300,2012-12-11 15:01:00
10:48 AM,46.4,39.2,76,29.84,10.0,WNW,6.9,-,N/A,,Overcast,300,2012-12-11 15:48:00
10:53 AM,48.0,39.9,74,29.84,10.0,WNW,10.4,-,N/A,,Mostly Cloudy,290,2012-12-11 15:53:00
11:53 AM,50.0,36.0,59,29.84,10.0,WNW,11.5,18.4,N/A,,Clear,290,2012-12-11 16:53:00
12:53 PM,50.0,32.0,50,29.84,10.0,West,11.5,21.9,N/A,,Clear,280,2012-12-11 17:53:00
1:53 PM,48.9,30.0,48,29.87,10.0,West,10.4,-,N/A,,Clear,280,2012-12-11 18:53:00
2:53 PM,48.0,27.0,44,29.90,10.0,WNW,6.9,-,N/A,,Clear,300,2012-12-11 19:53:00
3:53 PM,46.0,26.1,46,29.94,10.0,WNW,6.9,-,N/A,,Clear,300,2012-12-11 20:53:00
4:53 PM,41.0,27.0,57,29.99,10.0,WNW,4.6,-,N/A,,Clear,290,2012-12-11 21:53:00
5:53 PM,39.9,26.1,58,30.01,10.0,WNW,4.6,-,N/A,,Clear,300,2012-12-11 22:53:00
6:53 PM,39.9,27.0,60,30.05,10.0,WNW,9.2,-,N/A,,Clear,290,2012-12-11 23:53:00
7:53 PM,39.0,26.1,60,30.08,10.0,West,9.2,-,N/A,,Clear,280,2012-12-12 00:53:00
8:53 PM,37.9,25.0,60,30.10,10.0,West,6.9,-,N/A,,Clear,280,2012-12-12 01:53:00
9:53 PM,37.0,24.1,59,30.12,10.0,WNW,5.8,-,N/A,,Clear,300,2012-12-12 02:53:00
10:53 PM,36.0,23.0,59,30.12,10.0,NW,5.8,-,N/A,,Clear,320,2012-12-12 03:53:00
11:53 PM,35.1,21.9,59,30.15,10.0,Variable,5.8,-,N/A,,Clear,0,2012-12-12 04:53:00